CST,Max TemperatureF,Mean TemperatureF,Min TemperatureF,Max Dew PointF,MeanDew PointF,Min DewpointF,Max Humidity, Mean Humidity, Min Humidity, Max Sea Level PressureIn, Mean Sea Level PressureIn, Min Sea Level PressureIn, Max VisibilityMiles, Mean VisibilityMiles, Min VisibilityMiles, Max Wind SpeedMPH, Mean Wind SpeedMPH, Max Gust SpeedMPH,PrecipitationIn, CloudCover, Events, WindDirDegrees
2011-11-1,77,62,47,48,43,35,72,51,36,30.05,29.99,29.91,10,10,10,28,14,34,0.00,1,,190
2011-11-2,70,54,40,55,44,38,100,76,49,30.04,29.95,29.90,10,9,3,29,14,34,1.11,8,Rain,316
2011-11-3,50,42,35,40,36,27,100,83,43,30.25,30.05,29.88,10,8,3,24,18,37,0.56,8,Rain-Snow-Thunderstorm,342
2011-11-4,56,42,29,45,37,29,98,84,64,30.31,30.23,30.13,10,10,10,8,5,,0.00,2,,91
2011-11-5,59,50,41,46,44,42,100,83,56,30.12,30.02,29.86,10,10,10,20,11,26,0.00,3,,160
2011-11-6,70,60,50,59,53,45,100,79,59,30.06,29.96,29.86,10,10,10,21,14,29,0.00,3,,181
2011-11-7,60,58,56,61,58,56,100,100,100,30.13,30.02,29.92,10,6,0,14,5,,1.22,8,Rain-Thunderstorm,91
2011-11-8,59,52,43,59,51,44,100,100,99,29.96,29.87,29.75,10,4,0,21,6,24,1.41,8,Fog-Rain-Thunderstorm,25
2011-11-9,53,44,35,43,35,23,100,82,39,30.29,30.05,29.79,10,9,3,23,16,31,0.13,5,Rain,309
2011-11-10,49,40,30,25,22,18,79,53,29,30.31,30.24,30.14,10,10,10,20,8,28,0.00,0,,281
2011-11-11,64,47,30,37,32,24,90,59,33,30.12,29.91,29.82,10,10,10,20,10,28,0.00,0,,196
2011-11-12,61,50,40,51,37,31,78,57,36,29.82,29.67,29.53,10,10,10,25,14,32,0.00,1,,194
2011-11-13,71,62,49,52,43,35,84,55,26,29.62,29.54,29.39,10,10,10,29,15,36,0.00,0,,209
2011-11-14,63,54,44,46,41,35,99,64,36,29.78,29.66,29.51,10,10,10,16,7,20,0.00,2,,225
2011-11-15,66,52,39,45,37,29,97,62,35,29.98,29.80,29.72,10,10,10,16,7,,0.00,0,,226
2011-11-16,44,38,32,26,20,14,67,49,32,30.34,30.19,29.99,10,10,10,14,9,,0.00,4,,350
2011-11-17,46,34,22,28,23,18,96,64,34,30.41,30.31,30.14,10,10,10,16,8,22,0.00,0,,221
2011-11-18,60,48,36,30,24,21,58,40,26,30.13,29.94,29.79,10,10,10,36,19,43,0.00,1,,191
2011-11-19,71,54,34,57,41,30,82,65,47,30.12,29.81,29.63,10,10,10,32,18,40,0.00,5,,229
2011-11-20,37,34,31,36,32,27,100,88,75,30.27,30.22,30.12,10,8,3,16,11,,0.01,8,Rain,33
2011-11-21,44,40,35,44,41,36,100,100,93,30.26,30.16,30.04,10,5,1,9,5,,0.03,8,Rain,47
2011-11-22,46,44,41,47,43,41,100,100,99,30.20,30.02,29.96,10,6,1,15,9,,0.22,8,Rain,350
2011-11-23,55,48,40,44,42,41,100,90,61,30.36,30.24,30.20,10,9,3,10,6,,0.00,4,,207
2011-11-24,66,52,39,50,44,40,100,80,41,30.23,30.15,30.04,10,9,6,20,12,,0.00,0,,188
2011-11-25,62,52,43,49,45,42,100,77,57,30.02,29.90,29.81,10,10,10,28,17,33,0.00,4,,195
2011-11-26,57,48,38,56,49,31,100,96,67,30.12,29.86,29.75,10,9,2,25,13,34,1.00,7,Rain,260
2011-11-27,38,36,32,30,28,25,79,71,65,30.25,30.18,30.12,10,10,10,21,14,30,0.00,8,,348
2011-11-28,37,32,27,28,27,25,99,80,68,30.19,30.11,30.05,10,10,10,12,7,,0.00,5,,4
2011-11-29,47,37,27,31,22,13,99,62,28,30.22,30.16,30.03,10,10,10,21,12,26,0.00,0,,337
2011-11-30,48,32,17,20,13,9,83,45,20,30.22,30.15,30.08,10,10,10,9,5,,0.00,1,,188